Track FLOCK 3P 40 now! 10-day predictions FLOCK 3P 40 is classified as:
1 42010U 17008BQ 22135.43314961 .00034795 00000-0 10270-2 0 9997 2 42010 97.2777 202.4525 0005048 20.2206 339.9236 15.34886548291275